Other Public Products
Issued by NWS Charleston, SC

Current Version | Previous Version | Text Only | Print | Product List | Glossary Off
Versions: 1 2 3 4 5 6 7 8 9 10 11 12 13 14 15 16 17 18 19 20 21 22 23 24 25 26 27 28 29 30 31 32 33 34 35 36 37 38 39 40 41 42 43 44 45 46 47 48 49 50
008 FPUS82 KCHS 160127 OPUCHS TEST...KCHS/KSAV Gateway Observations...TEST National Weather Service Charleston SC 800 PM EST MON JAN 15 2018 NOTE: "fair" indicates few or no clouds below 12,000 feet with no significant weather and/or obstructions to visibility. SCZ050-WAZ558-NCZ071-TXZ119-213-PAZ071-DCZ001-FLZ074-172-MI076- NYZ176-178-MAZ016-IL014-TNZ027-NJZ106-GAZ044-MD014-160200- ...Gateway Observations for Charleston International... CITY SKY/WX TMP DP RH WIND PRES REMARKS Chas Airport FAIR 37 20 50 N5 30.46S WCI 33 Seattle MOCLDY 59 37 44 E17 29.87S Charlotte FAIR 31 13 47 E6 30.44S WCI 25 Dallas DFW CLOUDY 41 26 55 N23G36 30.41R Dallas Love CLOUDY 40 26 57 N28G35 30.43R WCI 29 Philladelphia CLOUDY 30 23 75 NE6 30.51F WCI 24 Wash National CLOUDY 30 24 78 SE6 30.52R WCI 24 Baltimore CLOUDY 28 20 71 CALM 30.51R Miami LGT RAIN 67 61 81 N7 30.23R Detroit LGT SNOW 22 19 89 CALM 30.26S FOG Newark FAIR 24 17 74 NE6 30.55R WCI 17 Laguardia FAIR 26 17 68 NE9 30.54S WCI 17 J F K FAIR 23 17 78 NE7 30.55S WCI 15 Boston Logan CLOUDY 20 2 45 NW12 30.59R WCI 8 Ft. Lauderdale MOCLDY 65 63 93 N9G17 30.23R Chicago O`Hare LGT SNOW 12 7 80 W13 30.27R WCI -3 Chicago Midway LGT SNOW 12 6 77 W15 30.30R WCI -4 Houston Bush CLOUDY 58 46 64 SE14 30.30R Houston Hobby CLOUDY 56 48 74 E7 30.29R Nashville CLOUDY 37 25 61 NW12 30.37R WCI 29 Atlanta FAIR 42 27 55 SE3 30.38S $$ GAZ044-118-TXZ119-213-NCZ071-DCZ001-MDZ014-506-PAZ021-071-NJZ106- NYZ176-178-MAZ106-OHZ011-021-055-MIZ076-KYZ091-ILZ014-INZ047- MNZ060-ONZ431-160200- ...Gateway Observations for Savannah International... CITY SKY/WX TMP DP RH WIND PRES REMARKS Savannah Arpt FAIR 37 28 70 NE6 30.46R WCI 32 Atlanta FAIR 42 27 55 SE3 30.38S Charlotte FAIR 31 13 47 E6 30.44S WCI 25 Dallas DFW CLOUDY 41 26 55 N23G36 30.41R Houston Bush CLOUDY 58 46 64 SE14 30.30R Wash National CLOUDY 30 24 78 SE6 30.52R WCI 24 Wash Dulles FAIR 21 17 84 SE3 30.47S Baltimore CLOUDY 28 20 71 CALM 30.51R Philadelphia CLOUDY 30 23 75 NE6 30.51F WCI 24 Newark FAIR 24 17 74 NE6 30.55R WCI 17 Laguardia FAIR 26 17 68 NE9 30.54S WCI 17 J F K FAIR 23 17 78 NE7 30.55S WCI 15 Boston CLOUDY 20 2 45 NW12 30.59R WCI 8 Pittsburg FLURRIES 24 24 100 E6 30.27F WCI 17 Akron LGT SNOW 26 22 84 S7 30.26S VSB 1 WCI 18 Cleveland FLURRIES 27 22 81 S8 30.29S WCI 19 Cincinnati LGT SNOW 27 27 100 SW6 30.31R FOG WCI 20 Columbus LGT SNOW 26 26 100 SW6 30.30S WCI 20 Detroit LGT SNOW 22 19 89 CALM 30.26S FOG Chicago O`Hare LGT SNOW 12 7 80 W13 30.27R WCI -3 Minneapolis FLURRIES 2 -4 76 NW12 30.52R WCI -15 Indianapolis CLOUDY 11 4 73 W16 30.38R WCI -6 Toronto Canada LGT SNOW 18 14 86 NE8 30.34F VSB 3/4 WCI 7 $$

USA.gov is the U.S. government's official web portal to all federal, state and local government web resources and services.